Location: Newark
(41.4000°N, 14.1833°E)
Time: 08:28:40
(UTC+00:00)

N. Korean satellite - Visible Passes

Search period start: 21 January 2020 00:00
Search period end: 31 January 2020 00:00
Orbit: 454 x 507 km, 97.2° (Epoch: 20 January)

Date Brightness Start Highest point End Pass type
(mag) Time Alt. Az. Time Alt. Az. Time Alt. Az.
21 Jan 8.5 04:20:46 10° NE 04:23:56 30° E 04:27:07 10° SSE visible
22 Jan 9.7 03:56:12 10° ENE 03:58:18 15° E 04:00:24 10° SE visible
22 Jan 7.3 05:28:35 10° N 05:31:45 31° WNW 05:34:58 10° SW visible
23 Jan 6.4 05:02:48 10° N 05:06:21 70° WNW 05:09:55 10° SSW visible
23 Jan 10.1 17:14:08 10° WSW 17:15:09 11° W 17:16:11 10° WNW visible
24 Jan 7.4 04:37:21 10° NNE 04:40:51 51° E 04:44:23 10° S visible
24 Jan 9.3 16:46:42 10° SSW 16:49:28 23° W 16:52:16 10° NW visible
25 Jan 9.0 04:12:19 10° NE 04:15:16 24° E 04:18:16 10° SSE visible
25 Jan 7.9 05:45:50 10° NNW 05:48:32 20° WNW 05:51:14 10° WSW visible
26 Jan 10.0 03:48:12 10° ENE 03:49:37 12° E 03:51:02 10° ESE visible
26 Jan 6.9 05:19:47 10° N 05:23:10 40° WNW 05:26:36 10° SW visible
27 Jan 6.5 04:54:08 10° NNE 04:57:45 89° ESE 05:01:23 10° SSW visible
27 Jan 9.8 17:04:31 10° SW 17:06:26 14° W 17:08:20 10° WNW visible
28 Jan 8.0 04:28:48 10° NNE 04:32:13 39° E 04:35:39 10° S visible
28 Jan 8.8 16:37:44 10° SSW 16:40:46 29° W 16:43:49 10° NW visible
29 Jan 9.4 04:03:56 10° NE 04:06:36 19° E 04:09:18 10° SE visible
29 Jan 7.6 05:36:56 10° NNW 05:39:57 25° WNW 05:43:00 10° SW visible
30 Jan 6.7 05:11:02 10° N 05:14:34 53° WNW 05:18:08 10° SSW visible
